96245 URRP-XIUW

Flight info

Callsign 96245
Flight time 6h 41m
Altitude FL290
Route DORIR A808 MOR G128 UROBO T692 LANUD T763 ABALI PEMAG LM GEROS A300 KZ A300 NN R229 KESUM M97 LIBZI R497 BD W241 IKT B155 USONA A45 UNARA A806 OSTUN
Aircraft IL76

Departure

Time 2026-04-29 21:27
Airport Platov International Airport (URRP)

Arrival

Time 2026-04-30 04:08
Airport Ulan-Ude East Airport (XIUW)
Time Latitude Longitude Altitude Speed Heading
2026-04-29 21:04 47.49758 39.94340 286 ft 0 kts 148°
2026-04-29 21:07 47.49758 39.94341 286 ft 0 kts 148°
2026-04-29 21:08 47.49757 39.94341 286 ft 0 kts 148°
2026-04-29 21:10 47.49754 39.94344 286 ft 2 kts 148°
2026-04-29 21:10 47.49734 39.94355 286 ft 4 kts 173°
2026-04-29 21:10 47.49709 39.94333 286 ft 5 kts 241°
2026-04-29 21:10 47.49717 39.94280 286 ft 5 kts 299°
2026-04-29 21:11 47.49732 39.94231 286 ft 6 kts 285°
2026-04-29 21:11 47.49726 39.94153 286 ft 11 kts 244°
2026-04-29 21:11 47.49678 39.94042 286 ft 13 kts 234°
2026-04-29 21:11 47.49628 39.93940 286 ft 11 kts 234°
2026-04-29 21:12 47.49585 39.93852 286 ft 10 kts 234°
2026-04-29 21:12 47.49549 39.93778 286 ft 8 kts 234°
2026-04-29 21:12 47.49516 39.93711 286 ft 9 kts 234°
2026-04-29 21:12 47.49477 39.93630 286 ft 10 kts 234°
2026-04-29 21:13 47.49436 39.93545 286 ft 11 kts 234°
2026-04-29 21:13 47.49415 39.93448 286 ft 10 kts 291°
2026-04-29 21:13 47.49465 39.93384 286 ft 10 kts 325°
2026-04-29 21:13 47.49521 39.93326 286 ft 10 kts 325°
2026-04-29 21:14 47.49551 39.93243 286 ft 9 kts 261°
2026-04-29 21:14 47.49519 39.93159 286 ft 10 kts 235°
2026-04-29 21:14 47.49479 39.93074 286 ft 10 kts 234°
2026-04-29 21:14 47.49436 39.92986 286 ft 11 kts 234°
2026-04-29 21:15 47.49387 39.92887 286 ft 13 kts 234°
2026-04-29 21:15 47.49331 39.92771 286 ft 14 kts 234°
2026-04-29 21:15 47.49271 39.92647 286 ft 15 kts 234°
2026-04-29 21:15 47.49209 39.92518 286 ft 16 kts 234°
2026-04-29 21:16 47.49144 39.92383 286 ft 16 kts 234°
2026-04-29 21:16 47.49076 39.92243 286 ft 17 kts 234°
2026-04-29 21:16 47.49006 39.92100 286 ft 17 kts 234°
2026-04-29 21:16 47.48941 39.91967 286 ft 15 kts 234°
2026-04-29 21:17 47.48885 39.91851 286 ft 13 kts 234°
2026-04-29 21:17 47.48836 39.91751 286 ft 11 kts 234°
2026-04-29 21:17 47.48794 39.91665 286 ft 9 kts 234°
2026-04-29 21:17 47.48759 39.91594 286 ft 8 kts 234°
2026-04-29 21:18 47.48730 39.91536 286 ft 6 kts 234°
2026-04-29 21:18 47.48708 39.91490 286 ft 5 kts 234°
2026-04-29 21:18 47.48691 39.91455 286 ft 3 kts 234°
2026-04-29 21:18 47.48673 39.91419 286 ft 6 kts 234°
2026-04-29 21:19 47.48646 39.91362 286 ft 8 kts 234°
2026-04-29 21:19 47.48614 39.91297 286 ft 8 kts 234°
2026-04-29 21:19 47.48583 39.91231 286 ft 8 kts 234°
2026-04-29 21:19 47.48551 39.91165 286 ft 8 kts 234°
2026-04-29 21:20 47.48519 39.91099 286 ft 8 kts 234°
2026-04-29 21:20 47.48487 39.91032 286 ft 8 kts 234°
2026-04-29 21:20 47.48455 39.90966 286 ft 8 kts 234°
2026-04-29 21:20 47.48423 39.90900 286 ft 8 kts 234°
2026-04-29 21:21 47.48390 39.90833 286 ft 8 kts 234°
2026-04-29 21:21 47.48358 39.90766 286 ft 8 kts 236°
2026-04-29 21:21 47.48345 39.90691 286 ft 7 kts 282°
2026-04-29 21:21 47.48376 39.90636 286 ft 7 kts 323°
2026-04-29 21:22 47.48415 39.90595 286 ft 7 kts 325°
2026-04-29 21:22 47.48457 39.90572 286 ft 6 kts
2026-04-29 21:22 47.48487 39.90601 286 ft 5 kts 53°
2026-04-29 21:22 47.48493 39.90614 286 ft 0 kts 54°
2026-04-29 21:23 47.48493 39.90615 286 ft 0 kts 54°
2026-04-29 21:23 47.48494 39.90615 286 ft 0 kts 54°
2026-04-29 21:23 47.48494 39.90616 286 ft 0 kts 54°
2026-04-29 21:24 47.48494 39.90617 286 ft 0 kts 54°
2026-04-29 21:24 47.48495 39.90617 286 ft 0 kts 54°
2026-04-29 21:24 47.48495 39.90618 286 ft 0 kts 54°
2026-04-29 21:25 47.48527 39.90685 286 ft 28 kts 54°
2026-04-29 21:25 47.48739 39.91119 286 ft 75 kts 54°
2026-04-29 21:25 47.49131 39.91923 286 ft 116 kts 54°
2026-04-29 21:25 47.49669 39.93030 302 ft 145 kts 53°
2026-04-29 21:26 47.50267 39.94285 437 ft 156 kts 54°
2026-04-29 21:26 47.50897 39.95681 529 ft 171 kts 56°
2026-04-29 21:26 47.51533 39.97215 669 ft 180 kts 58°
2026-04-29 21:26 47.52261 39.98827 803 ft 202 kts 54°
2026-04-29 21:27 47.53133 40.00629 1107 ft 228 kts 53°
2026-04-29 21:27 47.54143 40.02544 1441 ft 245 kts 50°
2026-04-29 21:27 47.55256 40.04488 2014 ft 249 kts 49°
2026-04-29 21:27 47.56347 40.06524 2584 ft 256 kts 52°
2026-04-29 21:28 47.57559 40.08485 3091 ft 264 kts 44°
2026-04-29 21:28 47.58935 40.10275 3804 ft 263 kts 40°
2026-04-29 21:28 47.60374 40.11993 4342 ft 270 kts 39°
2026-04-29 21:28 47.61873 40.13722 4871 ft 274 kts 39°
2026-04-29 21:29 47.63388 40.15456 5526 ft 276 kts 40°
2026-04-29 21:29 47.64913 40.17211 6077 ft 282 kts 40°
2026-04-29 21:29 47.66471 40.19038 6578 ft 289 kts 40°
2026-04-29 21:29 47.68043 40.20915 7069 ft 295 kts 40°
2026-04-29 21:30 47.69653 40.22874 7581 ft 300 kts 39°
2026-04-29 21:30 47.71185 40.24982 8048 ft 305 kts 51°
2026-04-29 21:30 47.72232 40.27717 8557 ft 306 kts 69°
2026-04-29 21:30 47.72906 40.30741 9147 ft 305 kts 76°
2026-04-29 21:31 47.73410 40.33805 9640 ft 308 kts 78°
2026-04-29 21:31 47.73855 40.36950 10093 ft 312 kts 80°
2026-04-29 21:31 47.74274 40.40130 10560 ft 315 kts 80°
2026-04-29 21:31 47.74683 40.43320 11022 ft 317 kts 81°
2026-04-29 21:32 47.75092 40.46557 11463 ft 320 kts 81°
2026-04-29 21:32 47.75505 40.49823 11868 ft 324 kts 81°
2026-04-29 21:32 47.75928 40.53114 12252 ft 327 kts 81°
2026-04-29 21:32 47.76358 40.56444 12659 ft 330 kts 81°
2026-04-29 21:33 47.76794 40.59809 13052 ft 333 kts 81°
2026-04-29 21:33 47.77232 40.63195 13430 ft 335 kts 81°
2026-04-29 21:33 47.77673 40.66608 13801 ft 338 kts 81°
2026-04-29 21:33 47.78115 40.70034 14162 ft 340 kts 81°
2026-04-29 21:34 47.78571 40.73489 14524 ft 342 kts 80°
2026-04-29 21:34 47.79048 40.76970 14875 ft 345 kts 80°
2026-04-29 21:34 47.79535 40.80466 15225 ft 347 kts 79°
2026-04-29 21:34 47.80056 40.83962 15559 ft 349 kts 75°
2026-04-29 21:35 47.81057 40.87262 15865 ft 352 kts 59°
2026-04-29 21:35 47.82436 40.90268 16210 ft 353 kts 52°
2026-04-29 21:35 47.83572 40.92398 16415 ft 355 kts 50°
2026-04-29 21:35 47.85597 40.95903 16792 ft 358 kts 47°
2026-04-29 21:36 47.87268 40.98655 17097 ft 360 kts 46°
2026-04-29 21:36 47.88954 41.01422 17394 ft 362 kts 46°
2026-04-29 21:36 47.90645 41.04202 17682 ft 364 kts 47°
2026-04-29 21:36 47.92340 41.06990 17964 ft 366 kts 47°
2026-04-29 21:37 47.94051 41.09805 18241 ft 367 kts 47°
2026-04-29 21:37 47.95770 41.12634 18515 ft 369 kts 47°
2026-04-29 21:37 47.97489 41.15497 18789 ft 371 kts 47°
2026-04-29 21:37 47.99197 41.18373 19055 ft 373 kts 47°
2026-04-29 21:38 48.00913 41.21275 19314 ft 374 kts 47°
2026-04-29 21:38 48.02636 41.24203 19572 ft 376 kts 48°
2026-04-29 21:38 48.04353 41.27162 19820 ft 378 kts 47°
2026-04-29 21:38 48.06059 41.30129 20083 ft 378 kts 49°
2026-04-29 21:39 48.07771 41.33123 20352 ft 379 kts 49°
2026-04-29 21:39 48.09472 41.36143 20581 ft 381 kts 50°
2026-04-29 21:39 48.10709 41.38351 20745 ft 382 kts 49°
2026-04-29 21:39 48.12896 41.42212 21032 ft 384 kts 49°
2026-04-29 21:40 48.14632 41.45255 21253 ft 385 kts 49°
2026-04-29 21:40 48.16376 41.48304 21469 ft 387 kts 49°
2026-04-29 21:40 48.18124 41.51379 21682 ft 388 kts 49°
2026-04-29 21:40 48.19857 41.54467 21889 ft 390 kts 50°
2026-04-29 21:41 48.21596 41.57589 22093 ft 391 kts 50°
2026-04-29 21:41 48.23346 41.60718 22293 ft 392 kts 49°
2026-04-29 21:41 48.25102 41.63832 22489 ft 394 kts 49°
2026-04-29 21:41 48.26865 41.66986 22668 ft 395 kts 50°
2026-04-29 21:42 48.28630 41.70157 22821 ft 398 kts 50°
2026-04-29 21:42 48.30416 41.73332 23008 ft 399 kts 49°
2026-04-29 21:42 48.32209 41.76521 23195 ft 400 kts 50°
2026-04-29 21:42 48.33992 41.79716 23358 ft 402 kts 50°
2026-04-29 21:43 48.35773 41.82978 23471 ft 405 kts 51°
2026-04-29 21:43 48.36443 41.84241 23533 ft 406 kts 51°
2026-04-29 21:43 48.39243 41.89664 23832 ft 407 kts 52°
2026-04-29 21:43 48.40959 41.93044 24002 ft 408 kts 53°
2026-04-29 21:44 48.42679 41.96448 24172 ft 409 kts 53°
2026-04-29 21:44 48.44403 41.99866 24340 ft 411 kts 53°
2026-04-29 21:44 48.46132 42.03298 24507 ft 412 kts 53°
2026-04-29 21:44 48.47859 42.06726 24674 ft 413 kts 53°
2026-04-29 21:45 48.49592 42.10167 24840 ft 414 kts 53°
2026-04-29 21:45 48.51341 42.13639 25001 ft 415 kts 53°
2026-04-29 21:45 48.53093 42.17116 25162 ft 416 kts 53°
2026-04-29 21:45 48.54840 42.20584 25322 ft 418 kts 53°
2026-04-29 21:46 48.56584 42.24043 25477 ft 419 kts 53°
2026-04-29 21:46 48.58366 42.27579 25634 ft 420 kts 53°
2026-04-29 21:46 48.60144 42.31080 25792 ft 421 kts 53°
2026-04-29 21:46 48.61921 42.34581 25941 ft 422 kts 53°
2026-04-29 21:47 48.63705 42.38106 26087 ft 423 kts 53°
2026-04-29 21:47 48.65494 42.41650 26233 ft 424 kts 53°
2026-04-29 21:47 48.67281 42.45208 26378 ft 426 kts 53°
2026-04-29 21:47 48.69051 42.48782 26519 ft 427 kts 54°
2026-04-29 21:48 48.70824 42.52388 26663 ft 428 kts 54°
2026-04-29 21:48 48.72606 42.55999 26805 ft 429 kts 53°
2026-04-29 21:48 48.74401 42.59594 26945 ft 430 kts 53°
2026-04-29 21:48 48.76203 42.63215 27080 ft 431 kts 54°
2026-04-29 21:49 48.77999 42.66860 27169 ft 434 kts 54°
2026-04-29 21:49 48.79807 42.70540 27289 ft 435 kts 54°
2026-04-29 21:49 48.81052 42.73076 27390 ft 436 kts 54°
2026-04-29 21:49 48.83420 42.77903 27565 ft 437 kts 54°
2026-04-29 21:50 48.85238 42.81610 27668 ft 439 kts 54°
2026-04-29 21:50 48.87064 42.85331 27791 ft 440 kts 54°
2026-04-29 21:50 48.88893 42.89062 27928 ft 441 kts 54°
2026-04-29 21:50 48.90720 42.92792 28054 ft 442 kts 54°
2026-04-29 21:51 48.92541 42.96560 28179 ft 443 kts 55°
2026-04-29 21:51 48.94358 43.00355 28306 ft 444 kts 55°
2026-04-29 21:51 48.97982 43.07957 28560 ft 446 kts 55°
2026-04-29 21:52 48.99801 43.11783 28724 ft 445 kts 55°
2026-04-29 21:52 49.01600 43.15563 29141 ft 437 kts 55°
2026-04-29 21:52 49.03371 43.19279 29428 ft 433 kts 55°
2026-04-29 21:52 49.05144 43.22996 29387 ft 438 kts 55°
2026-04-29 21:53 49.08726 43.30500 29270 ft 435 kts 56°
2026-04-29 21:53 49.12246 43.37853 29228 ft 425 kts 55°
2026-04-29 21:54 49.15693 43.45046 29213 ft 415 kts 55°
2026-04-29 21:54 49.19069 43.52162 29213 ft 415 kts 56°
2026-04-29 21:55 49.22442 43.59359 29214 ft 418 kts 56°
2026-04-29 21:55 49.25834 43.66555 29213 ft 419 kts 56°
2026-04-29 21:56 49.29241 43.73785 29213 ft 417 kts 55°
2026-04-29 21:56 49.32650 43.80914 29209 ft 414 kts 56°
2026-04-29 21:57 49.36043 43.88044 29212 ft 416 kts 56°
2026-04-29 21:57 49.39457 43.95231 29213 ft 417 kts 56°
2026-04-29 21:58 49.42874 44.02439 29213 ft 418 kts 56°
2026-04-29 21:58 49.46292 44.09657 29212 ft 418 kts 56°
2026-04-29 21:59 49.49705 44.16876 29212 ft 417 kts 56°
2026-04-29 21:59 49.52541 44.22881 29212 ft 417 kts 56°
2026-04-29 22:00 49.55948 44.30097 29210 ft 418 kts 56°
2026-04-29 22:00 49.59389 44.37368 29213 ft 422 kts 56°
2026-04-29 22:01 49.62852 44.44693 29214 ft 424 kts 56°
2026-04-29 22:01 49.66323 44.52043 29213 ft 424 kts 56°
2026-04-29 22:02 49.69780 44.59372 29212 ft 422 kts 56°
2026-04-29 22:02 49.73221 44.66715 29211 ft 422 kts 56°
2026-04-29 22:03 49.76611 44.74096 29211 ft 422 kts 57°
2026-04-29 22:03 49.80008 44.81488 29205 ft 420 kts 57°
2026-04-29 22:04 49.83383 44.88870 29205 ft 422 kts 57°
2026-04-29 22:04 49.86772 44.96310 29179 ft 425 kts 57°
2026-04-29 22:05 49.90186 45.03762 29112 ft 425 kts 57°
2026-04-29 22:06 49.95294 45.14949 29051 ft 423 kts 57°
2026-04-29 22:06 49.98682 45.22388 29045 ft 424 kts 57°
2026-04-29 22:07 50.02068 45.29836 29029 ft 425 kts 57°
2026-04-29 22:07 50.05271 45.37330 29016 ft 422 kts 59°
2026-04-29 22:08 50.08483 45.45165 29012 ft 420 kts 60°
2026-04-29 22:08 50.11597 45.52839 29012 ft 420 kts 60°
2026-04-29 22:09 50.14709 45.60534 29011 ft 420 kts 60°
2026-04-29 22:09 50.17816 45.68227 29011 ft 420 kts 60°
2026-04-29 22:10 50.20928 45.75950 29012 ft 421 kts 60°
2026-04-29 22:10 50.23998 45.83699 29011 ft 420 kts 61°
2026-04-29 22:11 50.27054 45.91474 29010 ft 420 kts 61°
2026-04-29 22:11 50.30093 45.99260 29011 ft 421 kts 61°
2026-04-29 22:12 50.33148 46.07089 29049 ft 422 kts 61°
2026-04-29 22:12 50.36223 46.14898 29026 ft 422 kts 60°
2026-04-29 22:13 50.39291 46.22708 29016 ft 421 kts 61°
2026-04-29 22:13 50.42331 46.30518 29014 ft 421 kts 61°
2026-04-29 22:14 50.45382 46.38341 29013 ft 420 kts 61°
2026-04-29 22:14 50.48424 46.46142 29016 ft 420 kts 61°
2026-04-29 22:15 50.51470 46.53964 29014 ft 420 kts 61°
2026-04-29 22:15 50.54529 46.61755 29024 ft 420 kts 61°
2026-04-29 22:16 50.57501 46.69658 29020 ft 420 kts 63°
2026-04-29 22:16 50.60403 46.77613 29018 ft 420 kts 64°
2026-04-29 22:17 50.63258 46.85614 29057 ft 419 kts 64°
2026-04-29 22:17 50.66099 46.93617 29101 ft 420 kts 64°
2026-04-29 22:18 50.68947 47.01656 29121 ft 421 kts 64°
2026-04-29 22:18 50.71793 47.09700 29142 ft 421 kts 64°
2026-04-29 22:19 50.74645 47.17772 29137 ft 421 kts 64°
2026-04-29 22:19 50.77480 47.25831 29137 ft 420 kts 64°
2026-04-29 22:20 50.80307 47.33896 29140 ft 421 kts 65°
2026-04-29 22:20 50.83164 47.42019 29138 ft 424 kts 65°
2026-04-29 22:21 50.85989 47.50208 29136 ft 424 kts 65°
2026-04-29 22:21 50.88784 47.58409 29135 ft 424 kts 65°
2026-04-29 22:22 50.91570 47.66616 29137 ft 423 kts 66°
2026-04-29 22:22 50.94354 47.74831 29131 ft 423 kts 66°
2026-04-29 22:23 50.97137 47.83042 29127 ft 423 kts 66°
2026-04-29 22:23 50.99924 47.91259 29124 ft 424 kts 63°
2026-04-29 22:24 51.02720 47.99488 29125 ft 424 kts 66°
2026-04-29 22:24 51.05512 48.07724 29121 ft 424 kts 66°
2026-04-29 22:25 51.08306 48.15985 29105 ft 424 kts 66°
2026-04-29 22:25 51.11091 48.24232 29097 ft 424 kts 66°
2026-04-29 22:26 51.13879 48.32497 29090 ft 424 kts 66°
2026-04-29 22:26 51.16660 48.40754 29086 ft 424 kts 66°
2026-04-29 22:27 51.19445 48.49033 29086 ft 424 kts 66°
2026-04-29 22:27 51.22219 48.57310 29083 ft 424 kts 66°
2026-04-29 22:28 51.24956 48.65643 29078 ft 424 kts 67°
2026-04-29 22:28 51.27681 48.73965 29073 ft 425 kts 66°
2026-04-29 22:29 51.30439 48.82318 29068 ft 426 kts 66°
2026-04-29 22:29 51.33188 48.90681 29065 ft 426 kts 66°
2026-04-29 22:30 51.35895 48.99103 29065 ft 426 kts 67°
2026-04-29 22:30 51.38602 49.07523 29060 ft 426 kts 66°
2026-04-29 22:31 51.41303 49.15927 29058 ft 426 kts 67°
2026-04-29 22:31 51.44015 49.24367 29053 ft 426 kts 67°
2026-04-29 22:32 51.46713 49.32764 29143 ft 424 kts 67°
2026-04-29 22:32 51.49412 49.41208 29184 ft 426 kts 66°
2026-04-29 22:33 51.52115 49.49660 29198 ft 427 kts 67°
2026-04-29 22:33 51.54822 49.58133 29202 ft 426 kts 67°
2026-04-29 22:34 51.57518 49.66581 29204 ft 426 kts 67°
2026-04-29 22:34 51.60199 49.75058 29205 ft 426 kts 67°
2026-04-29 22:35 51.62870 49.83530 29205 ft 426 kts 67°
2026-04-29 22:35 51.65537 49.92035 29206 ft 426 kts 68°
2026-04-29 22:36 51.68171 50.00549 29206 ft 426 kts 68°
2026-04-29 22:36 51.70834 50.09068 29205 ft 426 kts 67°
2026-04-29 22:37 51.73496 50.17571 29205 ft 426 kts 67°
2026-04-29 22:37 51.76162 50.26095 29205 ft 426 kts 66°
2026-04-29 22:38 51.78806 50.34613 29204 ft 426 kts 67°
2026-04-29 22:38 51.81213 50.42520 29202 ft 426 kts 66°
2026-04-29 22:39 51.84025 50.51780 29205 ft 427 kts 67°
2026-04-29 22:39 51.86646 50.60378 29197 ft 426 kts 67°
2026-04-29 22:40 51.89252 50.68951 29190 ft 425 kts 67°
2026-04-29 22:40 51.91853 50.77551 29190 ft 426 kts 67°
2026-04-29 22:41 51.94461 50.86136 29188 ft 426 kts 67°
2026-04-29 22:41 51.97123 50.94713 29193 ft 426 kts 66°
2026-04-29 22:42 51.99842 51.03223 29195 ft 426 kts 65°
2026-04-29 22:42 52.02582 51.11757 29193 ft 427 kts 65°
2026-04-29 22:43 52.05305 51.20289 29192 ft 426 kts 66°
2026-04-29 22:43 52.07984 51.28880 29188 ft 426 kts 66°
2026-04-29 22:44 52.10668 51.37443 29187 ft 426 kts 66°
2026-04-29 22:44 52.13372 51.46015 29189 ft 426 kts 66°
2026-04-29 22:45 52.16035 51.54609 29188 ft 426 kts 66°
2026-04-29 22:45 52.18694 51.63240 29189 ft 426 kts 66°
2026-04-29 22:46 52.21344 51.71851 29186 ft 426 kts 66°
2026-04-29 22:46 52.24038 51.80482 29183 ft 428 kts 66°
2026-04-29 22:47 52.26725 51.89146 29185 ft 430 kts 66°
2026-04-29 22:47 52.29387 51.97893 29183 ft 430 kts 67°
2026-04-29 22:48 52.32033 52.06632 29182 ft 430 kts 67°
2026-04-29 22:48 52.34678 52.15381 29183 ft 430 kts 66°
2026-04-29 22:49 52.37337 52.24105 29181 ft 429 kts 67°
2026-04-29 22:49 52.39984 52.32870 29180 ft 430 kts 67°
2026-04-29 22:50 52.42639 52.41608 29178 ft 429 kts 67°
2026-04-29 22:50 52.45280 52.50382 29176 ft 429 kts 67°
2026-04-29 22:51 52.47908 52.59149 29165 ft 429 kts 67°
2026-04-29 22:51 52.51832 52.72339 29179 ft 429 kts 71°
2026-04-29 22:52 52.54418 52.81138 29196 ft 428 kts 71°
2026-04-29 22:52 52.56987 52.89943 29200 ft 427 kts 71°
2026-04-29 22:53 52.59540 52.98721 29202 ft 426 kts 71°
2026-04-29 22:53 52.62091 53.07522 29202 ft 427 kts 71°
2026-04-29 22:54 52.64194 53.14902 29206 ft 429 kts 71°
2026-04-29 22:54 52.66729 53.23739 29204 ft 427 kts 71°
2026-04-29 22:55 52.69274 53.32567 29205 ft 426 kts 71°
2026-04-29 22:55 52.71807 53.41380 29205 ft 426 kts 71°
2026-04-29 22:56 52.74343 53.50222 29204 ft 426 kts 71°
2026-04-29 22:56 52.76871 53.59055 29199 ft 427 kts 71°
2026-04-29 22:57 52.79807 53.69478 29199 ft 432 kts 71°
2026-04-29 22:57 52.81933 53.76979 29186 ft 434 kts 71°
2026-04-29 22:58 52.84479 53.86016 29171 ft 433 kts 71°
2026-04-29 22:58 52.86997 53.95026 29164 ft 432 kts 72°
2026-04-29 22:59 52.89491 54.04068 29164 ft 433 kts 71°
2026-04-29 22:59 52.92019 54.13091 29157 ft 433 kts 71°
2026-04-29 23:00 52.94534 54.22133 29151 ft 432 kts 72°
2026-04-29 23:00 52.96999 54.31186 29148 ft 432 kts 71°
2026-04-29 23:01 52.99485 54.40259 29159 ft 432 kts 71°
2026-04-29 23:01 53.01982 54.49293 29193 ft 432 kts 71°
2026-04-29 23:02 53.04478 54.58395 29206 ft 434 kts 71°
2026-04-29 23:02 53.06966 54.67496 29210 ft 433 kts 71°
2026-04-29 23:03 53.09455 54.76610 29210 ft 433 kts 71°
2026-04-29 23:03 53.11928 54.85722 29208 ft 432 kts 71°
2026-04-29 23:04 53.14379 54.94841 29208 ft 431 kts 71°
2026-04-29 23:04 53.16818 55.03934 29207 ft 431 kts 71°
2026-04-29 23:05 53.19256 55.13050 29201 ft 431 kts 71°
2026-04-29 23:05 53.21652 55.22172 29195 ft 431 kts 72°
2026-04-29 23:06 53.24028 55.31355 29193 ft 431 kts 72°
2026-04-29 23:06 53.26412 55.40510 29189 ft 432 kts 72°
2026-04-29 23:07 53.28810 55.49734 29193 ft 435 kts 72°
2026-04-29 23:07 53.31221 55.59034 29194 ft 438 kts 72°
2026-04-29 23:08 53.33629 55.68398 29193 ft 438 kts 72°
2026-04-29 23:08 53.36032 55.77741 29193 ft 438 kts 72°
2026-04-29 23:09 53.38431 55.87085 29192 ft 437 kts 72°
2026-04-29 23:09 53.40880 55.96373 29192 ft 437 kts 71°
2026-04-29 23:10 53.43366 56.05667 29192 ft 437 kts 71°
2026-04-29 23:10 53.45850 56.14940 29192 ft 437 kts 71°
2026-04-29 23:11 53.48329 56.24240 29178 ft 437 kts 71°
2026-04-29 23:11 53.50766 56.33548 29166 ft 437 kts 71°
2026-04-29 23:12 53.53221 56.42899 29162 ft 438 kts 71°
2026-04-29 23:12 53.55659 56.52263 29160 ft 438 kts 71°
2026-04-29 23:13 53.58056 56.61679 29158 ft 438 kts 72°
2026-04-29 23:13 53.60442 56.71079 29158 ft 438 kts 71°
2026-04-29 23:14 53.62858 56.80490 29157 ft 438 kts 71°
2026-04-29 23:14 53.65262 56.89911 29161 ft 440 kts 71°
2026-04-29 23:15 53.67666 56.99401 29163 ft 441 kts 71°
2026-04-29 23:15 53.70071 57.08880 29159 ft 440 kts 71°
2026-04-29 23:16 53.72454 57.18396 29159 ft 440 kts 72°
2026-04-29 23:16 53.74795 57.27916 29155 ft 440 kts 71°
2026-04-29 23:17 53.77151 57.37451 29154 ft 440 kts 72°
2026-04-29 23:17 53.79502 57.47018 29155 ft 443 kts 72°
2026-04-29 23:18 53.81858 57.56646 29155 ft 443 kts 72°
2026-04-29 23:18 53.84228 57.66246 29155 ft 443 kts 72°
2026-04-29 23:19 53.86591 57.75870 29152 ft 443 kts 72°
2026-04-29 23:19 53.88943 57.85481 29150 ft 443 kts 71°
2026-04-29 23:20 53.91309 57.95117 29146 ft 443 kts 71°
2026-04-29 23:20 53.93676 58.04749 29154 ft 443 kts 71°
2026-04-29 23:21 53.96046 58.14406 29145 ft 443 kts 71°
2026-04-29 23:21 53.98390 58.24052 29139 ft 443 kts 72°
2026-04-29 23:22 54.00693 58.33751 29138 ft 443 kts 71°
2026-04-29 23:22 54.03004 58.43427 29133 ft 443 kts 70°
2026-04-29 23:23 54.04986 58.53294 29131 ft 440 kts 80°
2026-04-29 23:23 54.06355 58.63425 29120 ft 441 kts 84°
2026-04-29 23:24 54.07536 58.73665 29103 ft 439 kts 85°
2026-04-29 23:24 54.08666 58.83796 29094 ft 435 kts 84°
2026-04-29 23:25 54.09813 58.93915 29087 ft 435 kts 84°
2026-04-29 23:25 54.10962 59.04016 29084 ft 435 kts 84°
2026-04-29 23:26 54.12115 59.14149 29078 ft 436 kts 84°
2026-04-29 23:26 54.13251 59.24270 29075 ft 435 kts 84°
2026-04-29 23:27 54.14369 59.34418 29071 ft 436 kts 84°
2026-04-29 23:27 54.15483 59.44554 29068 ft 436 kts 83°
2026-04-29 23:28 54.16631 59.54703 29066 ft 436 kts 83°
2026-04-29 23:28 54.17754 59.64844 29061 ft 436 kts 83°
2026-04-29 23:29 54.18890 59.75001 29058 ft 436 kts 84°
2026-04-29 23:29 54.20019 59.85149 29054 ft 436 kts 83°
2026-04-29 23:30 54.21139 59.95318 29114 ft 436 kts 83°
2026-04-29 23:30 54.22253 60.05492 29149 ft 438 kts 83°
2026-04-29 23:31 54.23370 60.15735 29156 ft 438 kts 83°
2026-04-29 23:31 54.24484 60.25947 29158 ft 438 kts 83°
2026-04-29 23:32 54.25602 60.36172 29157 ft 438 kts 83°
2026-04-29 23:32 54.26719 60.46388 29160 ft 439 kts 84°
2026-04-29 23:33 54.27804 60.56675 29158 ft 439 kts 84°
2026-04-29 23:33 54.28875 60.66934 29159 ft 439 kts 84°
2026-04-29 23:34 54.29944 60.77204 29158 ft 439 kts 84°
2026-04-29 23:34 54.31016 60.87470 29158 ft 439 kts 83°
2026-04-29 23:35 54.32104 60.97738 29162 ft 438 kts 83°
2026-04-29 23:35 54.33189 61.07984 29165 ft 438 kts 84°
2026-04-29 23:36 54.34224 61.18267 29171 ft 438 kts 84°
2026-04-29 23:36 54.35234 61.28542 29168 ft 438 kts 84°
2026-04-29 23:37 54.36250 61.38843 29170 ft 438 kts 83°
2026-04-29 23:37 54.37280 61.49112 29167 ft 438 kts 83°
2026-04-29 23:38 54.38312 61.59412 29167 ft 438 kts 84°
2026-04-29 23:38 54.39291 61.69709 29167 ft 439 kts 84°
2026-04-29 23:39 54.40257 61.80058 29164 ft 439 kts 83°
2026-04-29 23:39 54.41245 61.90349 29178 ft 437 kts 83°
2026-04-29 23:40 54.42208 62.00653 29199 ft 438 kts 84°
2026-04-29 23:40 54.43168 62.10958 29206 ft 438 kts 84°
2026-04-29 23:41 54.44094 62.21299 29208 ft 438 kts 84°
2026-04-29 23:41 54.45046 62.31605 29208 ft 438 kts 83°
2026-04-29 23:42 54.46301 62.39754 29208 ft 438 kts 72°
2026-04-29 23:42 54.48839 62.51475 29210 ft 440 kts 68°
2026-04-29 23:43 54.51130 62.61231 29210 ft 440 kts 68°
2026-04-29 23:43 54.53394 62.70987 29209 ft 440 kts 68°
2026-04-29 23:44 54.55652 62.80769 29209 ft 440 kts 68°
2026-04-29 23:44 54.57865 62.90558 29209 ft 440 kts 69°
2026-04-29 23:45 54.60044 63.00420 29209 ft 440 kts 69°
2026-04-29 23:45 54.62178 63.10284 29208 ft 440 kts 70°
2026-04-29 23:46 54.64275 63.20217 29208 ft 441 kts 70°
2026-04-29 23:46 54.66356 63.30135 29207 ft 440 kts 70°
2026-04-29 23:47 54.68465 63.40053 29207 ft 440 kts 70°
2026-04-29 23:47 54.70570 63.49934 29207 ft 439 kts 70°
2026-04-29 23:48 54.72639 63.59863 29207 ft 439 kts 70°
2026-04-29 23:48 54.74352 63.68129 29207 ft 439 kts 70°
2026-04-29 23:49 54.76410 63.78076 29207 ft 439 kts 70°
2026-04-29 23:49 54.78470 63.88010 29209 ft 438 kts 70°
2026-04-29 23:50 54.80514 63.97928 29205 ft 437 kts 70°
2026-04-29 23:51 54.83568 64.12782 29204 ft 437 kts 70°
2026-04-29 23:51 54.85604 64.22695 29204 ft 437 kts 70°
2026-04-29 23:52 54.87643 64.32630 29204 ft 437 kts 70°
2026-04-29 23:52 54.89658 64.42550 29202 ft 436 kts 70°
2026-04-29 23:53 54.91636 64.52502 29201 ft 436 kts 71°
2026-04-29 23:53 54.93594 64.62445 29201 ft 436 kts 71°
2026-04-29 23:54 54.95579 64.72409 29201 ft 437 kts 71°
2026-04-29 23:54 54.97555 64.82383 29200 ft 437 kts 71°
2026-04-29 23:55 54.99500 64.92365 29197 ft 434 kts 71°
2026-04-29 23:55 55.01464 65.02277 29196 ft 434 kts 70°
2026-04-29 23:56 55.03412 65.12227 29196 ft 434 kts 71°
2026-04-29 23:56 55.05320 65.22203 29195 ft 434 kts 71°
2026-04-29 23:57 55.07225 65.32195 29196 ft 434 kts 71°
2026-04-29 23:57 55.09144 65.42123 29192 ft 431 kts 71°
2026-04-29 23:58 55.11025 65.52049 29191 ft 431 kts 71°
2026-04-29 23:58 55.12909 65.61948 29189 ft 430 kts 71°
2026-04-29 23:59 55.14792 65.71875 29192 ft 431 kts 71°
2026-04-29 23:59 55.16660 65.81804 29194 ft 431 kts 72°
2026-04-30 00:00 55.18482 65.91794 29187 ft 431 kts 72°
2026-04-30 00:00 55.20271 66.01777 29184 ft 431 kts 72°
2026-04-30 00:01 55.22056 66.11784 29183 ft 431 kts 72°
2026-04-30 00:01 55.23837 66.21780 29180 ft 431 kts 72°
2026-04-30 00:02 55.25622 66.31800 29178 ft 431 kts 74°
2026-04-30 00:02 55.27403 66.41812 29177 ft 432 kts 75°
2026-04-30 00:03 55.29184 66.51863 29174 ft 432 kts 75°
2026-04-30 00:03 55.30963 66.61906 29171 ft 432 kts 75°
2026-04-30 00:04 55.32746 66.71979 29169 ft 432 kts 75°
2026-04-30 00:04 55.34522 66.82025 29167 ft 432 kts 75°
2026-04-30 00:05 55.36258 66.92116 29163 ft 432 kts 75°
2026-04-30 00:05 55.37963 67.02223 29163 ft 432 kts 75°
2026-04-30 00:06 55.39665 67.12359 29160 ft 432 kts 75°
2026-04-30 00:06 55.41361 67.22471 29158 ft 432 kts 75°
2026-04-30 00:07 55.43058 67.32600 29155 ft 432 kts 76°
2026-04-30 00:07 55.44753 67.42717 29153 ft 432 kts 75°
2026-04-30 00:08 55.46453 67.52864 29131 ft 433 kts 75°
2026-04-30 00:08 55.48151 67.63011 29054 ft 432 kts 75°
2026-04-30 00:09 55.49848 67.73157 29026 ft 431 kts 76°
2026-04-30 00:09 55.51494 67.83305 29017 ft 432 kts 76°
2026-04-30 00:10 55.53139 67.93511 29013 ft 432 kts 76°
2026-04-30 00:10 55.54758 68.03694 29008 ft 431 kts 81°
2026-04-30 00:11 55.55478 68.14161 29014 ft 430 kts 91°
2026-04-30 00:11 55.55682 68.24673 29012 ft 428 kts 94°
2026-04-30 00:12 55.55772 68.35161 29010 ft 426 kts 94°
2026-04-30 00:12 55.55842 68.45575 29011 ft 425 kts 94°
2026-04-30 00:13 55.55907 68.56004 29011 ft 425 kts 94°
2026-04-30 00:13 55.55973 68.66421 29011 ft 425 kts 94°
2026-04-30 00:14 55.56040 68.76861 29011 ft 425 kts 94°
2026-04-30 00:14 55.56108 68.87284 29011 ft 425 kts 94°
2026-04-30 00:15 55.56178 68.97734 29011 ft 425 kts 94°
2026-04-30 00:15 55.56249 69.08161 29011 ft 426 kts 94°
2026-04-30 00:16 55.56348 69.18606 29010 ft 426 kts 92°
2026-04-30 00:16 55.57322 69.28926 29010 ft 427 kts 79°
2026-04-30 00:17 55.58880 69.39083 29012 ft 430 kts 76°
2026-04-30 00:17 55.60564 69.49239 29013 ft 432 kts 75°
2026-04-30 00:18 55.62278 69.59415 29012 ft 433 kts 75°
2026-04-30 00:18 55.64001 69.69612 29011 ft 432 kts 75°
2026-04-30 00:19 55.65695 69.79814 29009 ft 432 kts 76°
2026-04-30 00:19 55.67340 69.90007 29007 ft 431 kts 76°
2026-04-30 00:20 55.68979 70.00227 29007 ft 431 kts 76°
2026-04-30 00:20 55.70612 70.10432 29007 ft 431 kts 76°
2026-04-30 00:21 55.72247 70.20655 29007 ft 431 kts 76°
2026-04-30 00:21 55.73882 70.30866 29007 ft 431 kts 76°
2026-04-30 00:22 55.75520 70.41103 29007 ft 432 kts 76°
2026-04-30 00:22 55.77157 70.51330 29007 ft 432 kts 76°
2026-04-30 00:23 55.78777 70.61595 29007 ft 431 kts 77°
2026-04-30 00:23 55.80345 70.71847 29007 ft 431 kts 77°
2026-04-30 00:24 55.81912 70.82141 29009 ft 430 kts 73°
2026-04-30 00:24 55.83462 70.92337 29006 ft 426 kts 73°
2026-04-30 00:25 55.85003 71.02504 29006 ft 425 kts 73°
2026-04-30 00:25 55.86540 71.12650 29006 ft 426 kts 73°
2026-04-30 00:26 55.88082 71.22824 29007 ft 426 kts 73°
2026-04-30 00:26 55.89620 71.32989 29009 ft 426 kts 73°
2026-04-30 00:27 55.91142 71.43125 29005 ft 422 kts 73°
2026-04-30 00:27 55.92649 71.53188 29006 ft 421 kts 73°
2026-04-30 00:28 55.94123 71.63281 29006 ft 421 kts 74°
2026-04-30 00:28 55.95560 71.73403 28998 ft 422 kts 74°
2026-04-30 00:29 55.96994 71.83532 28989 ft 421 kts 75°
2026-04-30 00:29 55.98415 71.93590 28981 ft 416 kts 75°
2026-04-30 00:30 55.99827 72.03600 28980 ft 416 kts 75°
2026-04-30 00:30 56.01235 72.13589 28980 ft 416 kts 75°
2026-04-30 00:31 56.02649 72.23610 28979 ft 416 kts 75°
2026-04-30 00:31 56.04062 72.33622 28982 ft 416 kts 75°
2026-04-30 00:32 56.05463 72.43607 28978 ft 412 kts 75°
2026-04-30 00:32 56.06797 72.53512 28978 ft 410 kts 76°
2026-04-30 00:33 56.08109 72.63445 28979 ft 410 kts 76°
2026-04-30 00:33 56.09416 72.73372 28979 ft 411 kts 76°
2026-04-30 00:34 56.10728 72.83323 28982 ft 411 kts 76°
2026-04-30 00:34 56.12049 72.93209 28979 ft 407 kts 76°
2026-04-30 00:35 56.13326 73.03063 28978 ft 405 kts 77°
2026-04-30 00:35 56.14586 73.12886 28979 ft 406 kts 77°
2026-04-30 00:36 56.15848 73.22739 28979 ft 406 kts 77°
2026-04-30 00:36 56.17112 73.32591 28981 ft 406 kts 77°
2026-04-30 00:37 56.18400 73.42424 28979 ft 403 kts 77°
2026-04-30 00:37 56.19650 73.52190 28978 ft 402 kts 77°
2026-04-30 00:38 56.20872 73.61984 28979 ft 402 kts 78°
2026-04-30 00:38 56.22086 73.71762 28979 ft 402 kts 78°
2026-04-30 00:39 56.23311 73.81571 28979 ft 401 kts 78°
2026-04-30 00:39 56.24536 73.91327 28979 ft 401 kts 78°
2026-04-30 00:40 56.25555 74.01151 28980 ft 400 kts 84°
2026-04-30 00:40 56.26058 74.11092 28981 ft 401 kts 89°
2026-04-30 00:41 56.26407 74.21112 28981 ft 402 kts 89°
2026-04-30 00:41 56.26725 74.31115 28982 ft 401 kts 89°
2026-04-30 00:42 56.27030 74.41119 28981 ft 400 kts 89°
2026-04-30 00:42 56.27330 74.51082 28981 ft 399 kts 89°
2026-04-30 00:43 56.27631 74.61054 28981 ft 399 kts 89°
2026-04-30 00:43 56.27883 74.69347 28981 ft 399 kts 89°
2026-04-30 00:44 56.28188 74.79317 28981 ft 399 kts 89°
2026-04-30 00:44 56.28487 74.89276 28982 ft 400 kts 89°
2026-04-30 00:45 56.28780 74.99281 28982 ft 400 kts 90°
2026-04-30 00:45 56.29022 75.09271 28986 ft 400 kts 90°
2026-04-30 00:46 56.29243 75.19282 28985 ft 400 kts 90°
2026-04-30 00:46 56.29462 75.29279 28986 ft 400 kts 90°
2026-04-30 00:47 56.29682 75.39260 28986 ft 400 kts 90°
2026-04-30 00:47 56.29903 75.49255 28984 ft 399 kts 90°
2026-04-30 00:48 56.30128 75.59239 28987 ft 400 kts 90°
2026-04-30 00:48 56.30355 75.69213 28985 ft 400 kts 90°
2026-04-30 00:49 56.30584 75.79185 28986 ft 400 kts 90°
2026-04-30 00:49 56.30781 75.89191 28985 ft 399 kts 91°
2026-04-30 00:50 56.30957 75.99174 28986 ft 399 kts 91°
2026-04-30 00:50 56.31129 76.09139 28987 ft 399 kts 91°
2026-04-30 00:51 56.31303 76.19123 28985 ft 399 kts 91°
2026-04-30 00:51 56.31479 76.29101 28988 ft 399 kts 91°
2026-04-30 00:52 56.31648 76.39085 28986 ft 399 kts 91°
2026-04-30 00:52 56.31814 76.49038 28987 ft 398 kts 91°
2026-04-30 00:53 56.31983 76.59010 28987 ft 398 kts 91°
2026-04-30 00:53 56.32154 76.68967 28987 ft 399 kts 91°
2026-04-30 00:54 56.32290 76.78934 28985 ft 398 kts 91°
2026-04-30 00:54 56.32417 76.88868 28987 ft 398 kts 91°
2026-04-30 00:55 56.32509 76.98810 28988 ft 398 kts 92°
2026-04-30 00:55 56.32641 77.13755 28987 ft 397 kts 91°
2026-04-30 00:56 56.32734 77.23688 28989 ft 398 kts 91°
2026-04-30 00:56 56.32851 77.33652 28988 ft 398 kts 91°
2026-04-30 00:57 56.32978 77.43599 28989 ft 397 kts 91°
2026-04-30 00:57 56.33059 77.53517 28988 ft 397 kts 91°
2026-04-30 00:58 56.33118 77.63455 28989 ft 397 kts 91°
2026-04-30 00:58 56.33182 77.73364 28989 ft 396 kts 91°
2026-04-30 00:59 56.33245 77.83270 28988 ft 396 kts 91°
2026-04-30 00:59 56.33293 77.93194 28990 ft 396 kts 91°
2026-04-30 01:00 56.33336 78.03119 28989 ft 396 kts 91°
2026-04-30 01:00 56.33381 78.13018 28990 ft 396 kts 91°
2026-04-30 01:01 56.33429 78.22940 28990 ft 396 kts 91°
2026-04-30 01:01 56.33489 78.32852 28989 ft 396 kts 91°
2026-04-30 01:02 56.33536 78.42778 28991 ft 397 kts 91°
2026-04-30 01:02 56.33569 78.52693 28990 ft 397 kts 91°
2026-04-30 01:03 56.33601 78.62639 28991 ft 397 kts 91°
2026-04-30 01:03 56.33637 78.72561 28990 ft 397 kts 91°
2026-04-30 01:04 56.33641 78.82497 28990 ft 397 kts 91°
2026-04-30 01:04 56.33641 78.92422 28991 ft 398 kts 91°
2026-04-30 01:05 56.33640 79.02391 28991 ft 398 kts 91°
2026-04-30 01:05 56.33590 79.12339 28992 ft 398 kts 92°
2026-04-30 01:06 56.33527 79.22287 28991 ft 398 kts 92°
2026-04-30 01:06 56.33485 79.28777 28992 ft 398 kts 92°
2026-04-30 01:07 56.33429 79.42197 28992 ft 397 kts 91°
2026-04-30 01:07 56.33362 79.52128 28992 ft 397 kts 91°
2026-04-30 01:08 56.33273 79.62070 28992 ft 397 kts 92°
2026-04-30 01:08 56.33184 79.71983 28992 ft 397 kts 92°
2026-04-30 01:09 56.33096 79.81893 28995 ft 397 kts 91°
2026-04-30 01:09 56.33007 79.91796 28992 ft 394 kts 91°
2026-04-30 01:10 56.32922 80.01640 28993 ft 393 kts 91°
2026-04-30 01:10 56.32840 80.11455 29056 ft 393 kts 91°
2026-04-30 01:11 56.32750 80.21308 29063 ft 394 kts 92°
2026-04-30 01:11 56.32612 80.31135 29038 ft 393 kts 91°
2026-04-30 01:12 56.32489 80.40931 29010 ft 390 kts 91°
2026-04-30 01:12 56.32365 80.50659 29026 ft 389 kts 92°
2026-04-30 01:13 56.32197 80.60416 29008 ft 390 kts 92°
2026-04-30 01:13 56.32059 80.70148 29019 ft 389 kts 92°
2026-04-30 01:14 56.31931 80.79895 29015 ft 390 kts 92°
2026-04-30 01:14 56.31798 80.89645 29010 ft 391 kts 92°
2026-04-30 01:15 56.31659 80.99441 29028 ft 392 kts 92°
2026-04-30 01:15 56.31520 81.09229 29006 ft 391 kts 92°
2026-04-30 01:16 56.31385 81.19005 29026 ft 391 kts 92°
2026-04-30 01:16 56.31255 81.28785 29013 ft 392 kts 92°
2026-04-30 01:17 56.31102 81.38236 29017 ft 393 kts 93°
2026-04-30 01:17 56.30909 81.48429 29026 ft 395 kts 93°
2026-04-30 01:18 56.30719 81.58296 29009 ft 394 kts 92°
2026-04-30 01:18 56.30554 81.68123 29035 ft 394 kts 92°
2026-04-30 01:19 56.30385 81.77988 29011 ft 394 kts 92°
2026-04-30 01:19 56.30189 81.87837 29029 ft 395 kts 92°
2026-04-30 01:20 56.29982 81.97736 29024 ft 397 kts 92°
2026-04-30 01:20 56.29776 82.07621 29019 ft 395 kts 92°
2026-04-30 01:21 56.29537 82.17502 29080 ft 395 kts 93°
2026-04-30 01:21 56.29263 82.27378 29089 ft 397 kts 93°
2026-04-30 01:22 56.29008 82.37262 29078 ft 396 kts 92°
2026-04-30 01:22 56.28759 82.47160 29032 ft 396 kts 93°
2026-04-30 01:23 56.28466 82.57025 29105 ft 394 kts 93°
2026-04-30 01:23 56.28163 82.66858 29206 ft 396 kts 92°
2026-04-30 01:24 56.27875 82.76726 29250 ft 392 kts 93°
2026-04-30 01:24 56.27577 82.86513 29304 ft 395 kts 93°
2026-04-30 01:25 56.27270 82.96403 29321 ft 397 kts 93°
2026-04-30 01:25 56.26965 83.06286 29327 ft 396 kts 93°
2026-04-30 01:26 56.26664 83.16171 29329 ft 396 kts 93°
2026-04-30 01:26 56.26360 83.26034 29329 ft 396 kts 94°
2026-04-30 01:27 56.25997 83.35906 29330 ft 396 kts 94°
2026-04-30 01:27 56.25610 83.45752 29329 ft 396 kts 94°
2026-04-30 01:28 56.25169 83.55591 29329 ft 396 kts 95°
2026-04-30 01:28 56.24712 83.65467 29329 ft 396 kts 95°
2026-04-30 01:29 56.24266 83.75293 29328 ft 394 kts 95°
2026-04-30 01:29 56.23828 83.85094 29327 ft 394 kts 95°
2026-04-30 01:30 56.23417 83.94876 29326 ft 394 kts 94°
2026-04-30 01:30 56.22838 84.04665 29325 ft 394 kts 98°
2026-04-30 01:31 56.22095 84.13793 29324 ft 394 kts 99°
2026-04-30 01:31 56.21207 84.24103 29325 ft 394 kts 99°
2026-04-30 01:32 56.20365 84.33790 29339 ft 394 kts 99°
2026-04-30 01:32 56.19523 84.43507 29329 ft 394 kts 99°
2026-04-30 01:33 56.18668 84.53200 29319 ft 393 kts 100°
2026-04-30 01:33 56.17770 84.62858 29315 ft 393 kts 100°
2026-04-30 01:34 56.16860 84.72538 29310 ft 394 kts 100°
2026-04-30 01:34 56.15954 84.82196 29308 ft 393 kts 100°
2026-04-30 01:35 56.15053 84.91854 29306 ft 394 kts 100°
2026-04-30 01:35 56.14154 85.01535 29304 ft 394 kts 100°
2026-04-30 01:36 56.13260 85.11211 29302 ft 394 kts 100°
2026-04-30 01:36 56.12373 85.20864 29296 ft 393 kts 100°
2026-04-30 01:37 56.11453 85.30521 29295 ft 393 kts 101°
2026-04-30 01:37 56.10500 85.40151 29290 ft 394 kts 101°
2026-04-30 01:38 56.09703 85.48181 29287 ft 394 kts 101°
2026-04-30 01:38 56.08748 85.57823 29284 ft 393 kts 101°
2026-04-30 01:39 56.07802 85.67435 29277 ft 392 kts 101°
2026-04-30 01:39 56.06858 85.77065 29274 ft 393 kts 101°
2026-04-30 01:40 56.05918 85.86688 29264 ft 393 kts 101°
2026-04-30 01:40 56.04959 85.96316 29260 ft 393 kts 101°
2026-04-30 01:41 56.03972 86.05919 29255 ft 394 kts 101°
2026-04-30 01:41 56.03000 86.15546 29249 ft 393 kts 101°
2026-04-30 01:42 56.02003 86.25136 29248 ft 393 kts 101°
2026-04-30 01:42 56.01002 86.34745 29240 ft 393 kts 101°
2026-04-30 01:43 56.00006 86.44331 29237 ft 393 kts 101°
2026-04-30 01:43 55.98968 86.53927 29232 ft 394 kts 102°
2026-04-30 01:44 55.97905 86.63492 29229 ft 393 kts 102°
2026-04-30 01:44 55.96838 86.73068 29229 ft 394 kts 102°
2026-04-30 01:45 55.95776 86.82629 29223 ft 393 kts 102°
2026-04-30 01:45 55.94717 86.92206 29221 ft 394 kts 102°
2026-04-30 01:46 55.93666 87.01762 29217 ft 394 kts 102°
2026-04-30 01:46 55.92611 87.11332 29213 ft 393 kts 102°
2026-04-30 01:47 55.91514 87.20859 29212 ft 394 kts 102°
2026-04-30 01:47 55.90396 87.30403 29205 ft 393 kts 103°
2026-04-30 01:48 55.89279 87.39925 29192 ft 393 kts 103°
2026-04-30 01:48 55.88165 87.49455 29143 ft 393 kts 102°
2026-04-30 01:49 55.87058 87.58955 29114 ft 392 kts 102°
2026-04-30 01:49 55.85955 87.68474 29101 ft 393 kts 102°
2026-04-30 01:50 55.84846 87.77976 29085 ft 393 kts 103°
2026-04-30 01:50 55.83687 87.87483 29076 ft 393 kts 103°
2026-04-30 01:51 55.82517 87.96968 29040 ft 393 kts 103°
2026-04-30 01:51 55.81348 88.06451 29019 ft 393 kts 103°
2026-04-30 01:52 55.80186 88.15916 29016 ft 393 kts 103°
2026-04-30 01:52 55.79025 88.25412 29012 ft 394 kts 103°
2026-04-30 01:53 55.77871 88.34898 29010 ft 394 kts 103°
2026-04-30 01:53 55.76711 88.44393 29009 ft 394 kts 103°
2026-04-30 01:54 55.75520 88.53828 29005 ft 390 kts 103°
2026-04-30 01:54 55.74316 88.63225 29009 ft 392 kts 104°
2026-04-30 01:55 55.73100 88.72668 29010 ft 394 kts 104°
2026-04-30 01:55 55.71884 88.82142 29009 ft 394 kts 104°
2026-04-30 01:56 55.70676 88.91585 29009 ft 394 kts 103°
2026-04-30 01:56 55.69448 89.01040 29009 ft 393 kts 105°
2026-04-30 01:57 55.68018 89.10377 29010 ft 394 kts 107°
2026-04-30 01:57 55.66507 89.19693 29010 ft 394 kts 107°
2026-04-30 01:58 55.64986 89.28985 29010 ft 394 kts 107°
2026-04-30 01:58 55.63464 89.38295 29010 ft 394 kts 107°
2026-04-30 01:59 55.61176 89.52227 29010 ft 394 kts 108°
2026-04-30 02:00 55.59600 89.61498 29010 ft 394 kts 108°
2026-04-30 02:00 55.58035 89.70733 29011 ft 391 kts 107°
2026-04-30 02:01 55.56496 89.79891 29009 ft 388 kts 108°
2026-04-30 02:01 55.54927 89.88975 29010 ft 388 kts 108°
2026-04-30 02:02 55.53346 89.98080 29010 ft 388 kts 108°
2026-04-30 02:02 55.51770 90.07167 29011 ft 388 kts 108°
2026-04-30 02:03 55.50196 90.16268 29011 ft 388 kts 108°
2026-04-30 02:03 55.48629 90.25353 29011 ft 388 kts 108°
2026-04-30 02:04 55.47066 90.34446 29049 ft 387 kts 107°
2026-04-30 02:04 55.45483 90.43500 29154 ft 389 kts 105°
2026-04-30 02:05 55.43895 90.52561 29184 ft 387 kts 105°
2026-04-30 02:05 55.42275 90.61579 29188 ft 386 kts 105°
2026-04-30 02:06 55.40648 90.70557 29184 ft 386 kts 105°
2026-04-30 02:06 55.39018 90.79553 29183 ft 386 kts 105°
2026-04-30 02:07 55.37375 90.88558 29177 ft 387 kts 105°
2026-04-30 02:07 55.35731 90.97549 29186 ft 387 kts 105°
2026-04-30 02:08 55.34090 91.06538 29196 ft 388 kts 105°
2026-04-30 02:08 55.32449 91.15550 29189 ft 387 kts 105°
2026-04-30 02:09 55.30815 91.24558 29189 ft 387 kts 105°
2026-04-30 02:09 55.29176 91.33541 29184 ft 388 kts 105°
2026-04-30 02:10 55.27518 91.42541 29180 ft 388 kts 105°
2026-04-30 02:10 55.25862 91.51525 29181 ft 388 kts 105°
2026-04-30 02:11 55.24208 91.60516 29175 ft 388 kts 104°
2026-04-30 02:11 55.22549 91.69479 29170 ft 385 kts 105°
2026-04-30 02:12 55.20901 91.78340 29170 ft 384 kts 104°
2026-04-30 02:12 55.19239 91.87209 29160 ft 384 kts 104°
2026-04-30 02:13 55.17570 91.96080 29189 ft 384 kts 104°
2026-04-30 02:13 55.15885 92.04925 29192 ft 384 kts 105°
2026-04-30 02:14 55.14162 92.13735 29188 ft 384 kts 105°
2026-04-30 02:14 55.12425 92.22562 29192 ft 384 kts 105°
2026-04-30 02:15 55.10713 92.31408 29194 ft 384 kts 104°
2026-04-30 02:15 55.09031 92.40229 29199 ft 384 kts 105°
2026-04-30 02:16 55.07557 92.47753 29197 ft 383 kts 105°
2026-04-30 02:16 55.05580 92.57805 29181 ft 383 kts 105°
2026-04-30 02:17 55.03848 92.66594 29183 ft 383 kts 105°
2026-04-30 02:17 55.02123 92.75365 29178 ft 384 kts 105°
2026-04-30 02:18 55.00390 92.84134 29193 ft 383 kts 104°
2026-04-30 02:18 54.98626 92.92892 29209 ft 384 kts 105°
2026-04-30 02:19 54.96856 93.01657 29205 ft 384 kts 105°
2026-04-30 02:19 54.95094 93.10395 29206 ft 384 kts 105°
2026-04-30 02:20 54.93332 93.19145 29206 ft 384 kts 105°
2026-04-30 02:20 54.91578 93.27883 29201 ft 384 kts 105°
2026-04-30 02:21 54.89812 93.36635 29203 ft 384 kts 104°
2026-04-30 02:21 54.88045 93.45356 29200 ft 384 kts 105°
2026-04-30 02:22 54.86256 93.54078 29196 ft 384 kts 105°
2026-04-30 02:22 54.84434 93.62769 29200 ft 384 kts 105°
2026-04-30 02:23 54.82598 93.71475 29207 ft 385 kts 105°
2026-04-30 02:23 54.80765 93.80160 29211 ft 385 kts 105°
2026-04-30 02:24 54.78929 93.88867 29223 ft 385 kts 106°
2026-04-30 02:24 54.77112 93.97439 29199 ft 374 kts 105°
2026-04-30 02:25 54.75302 94.05988 29208 ft 383 kts 105°
2026-04-30 02:25 54.73464 94.14684 29209 ft 386 kts 105°
2026-04-30 02:26 54.71615 94.23339 29235 ft 382 kts 105°
2026-04-30 02:26 54.69762 94.31959 29252 ft 383 kts 105°
2026-04-30 02:27 54.67903 94.40557 29233 ft 383 kts 105°
2026-04-30 02:27 54.66049 94.49160 29210 ft 382 kts 105°
2026-04-30 02:28 54.64205 94.57729 29205 ft 382 kts 105°
2026-04-30 02:28 54.62354 94.66329 29199 ft 382 kts 105°
2026-04-30 02:29 54.60501 94.74921 29194 ft 382 kts 105°
2026-04-30 02:29 54.58616 94.83472 29190 ft 382 kts 105°
2026-04-30 02:30 54.56738 94.92046 29189 ft 383 kts 104°
2026-04-30 02:30 54.54866 95.00613 29186 ft 383 kts 105°
2026-04-30 02:31 54.52954 95.09149 29181 ft 383 kts 105°
2026-04-30 02:31 54.51018 95.17683 29178 ft 383 kts 105°
2026-04-30 02:32 54.49086 95.26202 29173 ft 383 kts 105°
2026-04-30 02:32 54.47470 95.33311 29171 ft 383 kts 105°
2026-04-30 02:33 54.45539 95.41803 29167 ft 382 kts 105°
2026-04-30 02:33 54.43611 95.50303 29161 ft 382 kts 105°
2026-04-30 02:34 54.41690 95.58782 29157 ft 382 kts 105°
2026-04-30 02:34 54.39771 95.67274 29152 ft 382 kts 105°
2026-04-30 02:35 54.37858 95.75749 29150 ft 382 kts 105°
2026-04-30 02:35 54.35934 95.84236 29147 ft 382 kts 105°
2026-04-30 02:36 54.33968 95.92687 29141 ft 383 kts 105°
2026-04-30 02:36 54.31975 96.01133 29136 ft 383 kts 106°
2026-04-30 02:37 54.30006 96.09567 29215 ft 381 kts 105°
2026-04-30 02:37 54.28036 96.18011 29318 ft 382 kts 105°
2026-04-30 02:38 54.26113 96.26303 29352 ft 381 kts 104°
2026-04-30 02:38 54.24850 96.35176 29371 ft 379 kts 92°
2026-04-30 02:39 54.24101 96.44032 29372 ft 375 kts 91°
2026-04-30 02:39 54.23458 96.52845 29382 ft 371 kts 90°
2026-04-30 02:40 54.22841 96.61502 29383 ft 365 kts 89°
2026-04-30 02:40 54.22232 96.70094 29386 ft 364 kts 89°
2026-04-30 02:41 54.21629 96.78663 29387 ft 365 kts 89°
2026-04-30 02:41 54.21011 96.87257 29391 ft 364 kts 89°
2026-04-30 02:42 54.20383 96.95817 29394 ft 364 kts 89°
2026-04-30 02:42 54.19756 97.04364 29396 ft 363 kts 89°
2026-04-30 02:43 54.19132 97.12914 29401 ft 363 kts 89°
2026-04-30 02:43 54.18508 97.21487 29403 ft 364 kts 89°
2026-04-30 02:44 54.17842 97.30022 29406 ft 363 kts 89°
2026-04-30 02:44 54.17426 97.35464 29408 ft 363 kts 89°
2026-04-30 02:45 54.16507 97.47051 29411 ft 362 kts 90°
2026-04-30 02:45 54.15797 97.55555 29410 ft 362 kts 90°
2026-04-30 02:46 54.15090 97.64041 29408 ft 362 kts 90°
2026-04-30 02:46 54.14383 97.72542 29409 ft 362 kts 90°
2026-04-30 02:47 54.13680 97.81031 29406 ft 362 kts 89°
2026-04-30 02:47 54.12966 97.89531 29404 ft 362 kts 89°
2026-04-30 02:48 54.12251 97.98019 29406 ft 363 kts 89°
2026-04-30 02:48 54.11537 98.06529 29420 ft 363 kts 89°
2026-04-30 02:49 54.10828 98.15027 29428 ft 363 kts 89°
2026-04-30 02:49 54.10114 98.23540 29419 ft 363 kts 90°
2026-04-30 02:50 54.09360 98.32019 29410 ft 363 kts 90°
2026-04-30 02:50 54.08585 98.40533 29411 ft 365 kts 90°
2026-04-30 02:51 54.07806 98.49078 29410 ft 366 kts 90°
2026-04-30 02:51 54.07029 98.57638 29410 ft 366 kts 90°
2026-04-30 02:52 54.06291 98.65815 29411 ft 366 kts 90°
2026-04-30 02:52 54.05489 98.74753 29409 ft 366 kts 90°
2026-04-30 02:53 54.04669 98.83296 29402 ft 371 kts 97°
2026-04-30 02:53 54.02709 98.91412 29409 ft 372 kts 110°
2026-04-30 02:54 54.00213 98.99212 29407 ft 380 kts 112°
2026-04-30 02:54 53.97541 99.07083 29412 ft 387 kts 114°
2026-04-30 02:55 53.94825 99.14927 29405 ft 386 kts 114°
2026-04-30 02:55 53.92105 99.22763 29390 ft 385 kts 114°
2026-04-30 02:56 53.89392 99.30570 29387 ft 385 kts 114°
2026-04-30 02:56 53.86644 99.38375 29388 ft 386 kts 114°
2026-04-30 02:57 53.83885 99.46173 29382 ft 387 kts 115°
2026-04-30 02:57 53.81128 99.53964 29381 ft 387 kts 114°
2026-04-30 02:58 53.78370 99.61762 29381 ft 387 kts 114°
2026-04-30 02:58 53.75616 99.69567 29355 ft 386 kts 114°
2026-04-30 02:59 53.72876 99.77348 29351 ft 386 kts 115°
2026-04-30 02:59 53.70123 99.85069 29345 ft 383 kts 115°
2026-04-30 03:00 53.67368 99.92747 29388 ft 382 kts 115°
2026-04-30 03:00 53.64609 100.00428 29387 ft 383 kts 115°
2026-04-30 03:01 53.61869 100.08081 29361 ft 383 kts 115°
2026-04-30 03:01 53.59120 100.15765 29317 ft 382 kts 115°
2026-04-30 03:02 53.56383 100.23413 29299 ft 382 kts 115°
2026-04-30 03:02 53.53644 100.31067 29293 ft 383 kts 115°
2026-04-30 03:03 53.50885 100.38732 29281 ft 384 kts 115°
2026-04-30 03:03 53.46682 100.50176 29278 ft 384 kts 116°
2026-04-30 03:04 53.43874 100.57780 29273 ft 385 kts 116°
2026-04-30 03:04 53.41062 100.65413 29242 ft 384 kts 116°
2026-04-30 03:05 53.38262 100.73016 29233 ft 384 kts 116°
2026-04-30 03:05 53.35459 100.80634 29224 ft 385 kts 116°
2026-04-30 03:06 53.32658 100.88253 29215 ft 385 kts 116°
2026-04-30 03:06 53.29858 100.95875 29214 ft 386 kts 116°
2026-04-30 03:07 53.27053 101.03514 29212 ft 386 kts 116°
2026-04-30 03:07 53.24230 101.11141 29185 ft 386 kts 116°
2026-04-30 03:08 53.21409 101.18707 29173 ft 383 kts 116°
2026-04-30 03:08 53.18617 101.26222 29166 ft 382 kts 116°
2026-04-30 03:09 53.15812 101.33756 29154 ft 382 kts 116°
2026-04-30 03:09 53.12993 101.41262 29153 ft 382 kts 117°
2026-04-30 03:10 53.10150 101.48713 29154 ft 383 kts 117°
2026-04-30 03:10 53.07293 101.56180 29197 ft 382 kts 117°
2026-04-30 03:11 53.04447 101.63617 29264 ft 383 kts 117°
2026-04-30 03:11 53.01592 101.71081 29288 ft 382 kts 117°
2026-04-30 03:12 52.98748 101.78518 29296 ft 382 kts 117°
2026-04-30 03:12 52.95905 101.85958 29299 ft 382 kts 117°
2026-04-30 03:13 52.93061 101.93410 29300 ft 382 kts 117°
2026-04-30 03:13 52.90219 102.00863 29301 ft 382 kts 117°
2026-04-30 03:14 52.87386 102.08292 29301 ft 382 kts 117°
2026-04-30 03:14 52.84507 102.15684 29301 ft 382 kts 118°
2026-04-30 03:15 52.81616 102.23040 29301 ft 382 kts 118°
2026-04-30 03:15 52.78720 102.30398 29301 ft 382 kts 118°
2026-04-30 03:16 52.75831 102.37740 29301 ft 382 kts 118°
2026-04-30 03:16 52.72940 102.45094 29301 ft 382 kts 118°
2026-04-30 03:17 52.70260 102.51916 29301 ft 382 kts 117°
2026-04-30 03:17 52.67374 102.59272 29301 ft 382 kts 117°
2026-04-30 03:18 52.64496 102.66611 29301 ft 383 kts 117°
2026-04-30 03:18 52.61613 102.73973 29301 ft 383 kts 117°
2026-04-30 03:19 52.58796 102.81173 29301 ft 383 kts 117°
2026-04-30 03:19 52.55915 102.88524 29301 ft 383 kts 118°
2026-04-30 03:20 52.52997 102.95816 29301 ft 383 kts 118°
2026-04-30 03:20 52.50069 103.03109 29301 ft 382 kts 118°
2026-04-30 03:21 52.47164 103.10413 29301 ft 383 kts 118°
2026-04-30 03:21 52.44254 103.17690 29301 ft 382 kts 118°
2026-04-30 03:22 52.41861 103.25362 29303 ft 378 kts 103°
2026-04-30 03:22 52.40477 103.33669 29304 ft 376 kts 97°
2026-04-30 03:23 52.39369 103.41940 29299 ft 370 kts 95°
2026-04-30 03:23 52.38323 103.50161 29299 ft 368 kts 95°
2026-04-30 03:24 52.37473 103.56932 29298 ft 368 kts 95°
2026-04-30 03:24 52.36267 103.66581 29298 ft 368 kts 95°
2026-04-30 03:25 52.35419 103.73404 29298 ft 368 kts 95°
2026-04-30 03:25 52.34351 103.81617 29298 ft 368 kts 96°
2026-04-30 03:26 52.33264 103.89788 29299 ft 368 kts 96°
2026-04-30 03:26 52.32178 103.97930 29299 ft 368 kts 96°
2026-04-30 03:27 52.31079 104.06129 29300 ft 369 kts 96°
2026-04-30 03:27 52.29935 104.14277 29300 ft 369 kts 97°
2026-04-30 03:28 52.28775 104.22435 29300 ft 369 kts 97°
2026-04-30 03:28 52.27616 104.30579 29300 ft 369 kts 97°
2026-04-30 03:29 52.26424 104.38737 29301 ft 370 kts 97°
2026-04-30 03:29 52.25089 104.46828 29300 ft 371 kts 102°
2026-04-30 03:30 52.23394 104.54777 29300 ft 371 kts 104°
2026-04-30 03:30 52.21600 104.62697 29301 ft 373 kts 104°
2026-04-30 03:31 52.19785 104.70638 29301 ft 374 kts 104°
2026-04-30 03:31 52.17970 104.78573 29300 ft 375 kts 104°
2026-04-30 03:32 52.16154 104.86522 29297 ft 374 kts 104°
2026-04-30 03:32 52.14566 104.93478 29296 ft 374 kts 104°
2026-04-30 03:33 52.12513 105.02373 29320 ft 374 kts 105°
2026-04-30 03:33 52.10663 105.10267 29344 ft 374 kts 104°
2026-04-30 03:34 52.08823 105.18192 29352 ft 375 kts 105°
2026-04-30 03:34 52.07006 105.26031 29144 ft 367 kts 104°
2026-04-30 03:35 52.06112 105.29885 28785 ft 364 kts 104°
2026-04-30 03:35 52.05220 105.33738 28416 ft 362 kts 104°
2026-04-30 03:35 52.04338 105.37560 28047 ft 360 kts 104°
2026-04-30 03:35 52.03486 105.41348 27673 ft 357 kts 102°
2026-04-30 03:36 52.03034 105.45239 27228 ft 347 kts 88°
2026-04-30 03:36 52.02988 105.49126 26842 ft 341 kts 82°
2026-04-30 03:36 52.03133 105.52942 26477 ft 337 kts 78°
2026-04-30 03:36 52.03362 105.56695 26137 ft 334 kts 77°
2026-04-30 03:37 52.03630 105.60427 25779 ft 331 kts 76°
2026-04-30 03:37 52.03913 105.64128 25419 ft 330 kts 76°
2026-04-30 03:37 52.04194 105.67809 25059 ft 328 kts 76°
2026-04-30 03:37 52.04464 105.71464 24700 ft 327 kts 77°
2026-04-30 03:38 52.04730 105.75118 24338 ft 325 kts 77°
2026-04-30 03:38 52.04994 105.78754 23978 ft 324 kts 77°
2026-04-30 03:38 52.05256 105.82380 23617 ft 322 kts 77°
2026-04-30 03:38 52.05505 105.85979 23259 ft 321 kts 77°
2026-04-30 03:39 52.05744 105.89577 22904 ft 320 kts 78°
2026-04-30 03:39 52.05980 105.93160 22552 ft 318 kts 78°
2026-04-30 03:39 52.06209 105.96720 22200 ft 317 kts 78°
2026-04-30 03:39 52.06426 106.00265 21849 ft 315 kts 78°
2026-04-30 03:40 52.06642 106.03800 21500 ft 314 kts 79°
2026-04-30 03:40 52.06855 106.07323 21152 ft 312 kts 79°
2026-04-30 03:40 52.07053 106.10828 20806 ft 311 kts 79°
2026-04-30 03:40 52.07246 106.14300 20464 ft 309 kts 79°
2026-04-30 03:41 52.07439 106.17774 20121 ft 308 kts 80°
2026-04-30 03:41 52.07621 106.21232 19780 ft 307 kts 80°
2026-04-30 03:41 52.07793 106.24658 19442 ft 305 kts 81°
2026-04-30 03:41 52.07965 106.28084 19105 ft 304 kts 81°
2026-04-30 03:42 52.08136 106.31497 18769 ft 302 kts 81°
2026-04-30 03:42 52.08312 106.34891 18435 ft 301 kts 81°
2026-04-30 03:42 52.08492 106.38251 18105 ft 299 kts 81°
2026-04-30 03:42 52.08672 106.41607 17775 ft 298 kts 81°
2026-04-30 03:43 52.08845 106.44952 17447 ft 296 kts 81°
2026-04-30 03:43 52.09011 106.48285 17121 ft 295 kts 81°
2026-04-30 03:43 52.09170 106.51599 16797 ft 294 kts 81°
2026-04-30 03:43 52.09325 106.54886 16477 ft 292 kts 81°
2026-04-30 03:44 52.09480 106.58174 16156 ft 291 kts 81°
2026-04-30 03:44 52.09636 106.61441 15838 ft 290 kts 81°
2026-04-30 03:44 52.09795 106.64679 15535 ft 288 kts 81°
2026-04-30 03:44 52.09957 106.67886 15302 ft 283 kts 81°
2026-04-30 03:45 52.10121 106.71064 15066 ft 279 kts 81°
2026-04-30 03:45 52.10282 106.74191 14826 ft 277 kts 81°
2026-04-30 03:45 52.10437 106.77306 14613 ft 277 kts 81°
2026-04-30 03:45 52.10591 106.80409 14407 ft 276 kts 81°
2026-04-30 03:46 52.10726 106.83526 14192 ft 279 kts 86°
2026-04-30 03:46 52.10337 106.86668 13892 ft 291 kts 108°
2026-04-30 03:46 52.09380 106.89550 13751 ft 291 kts 121°
2026-04-30 03:46 52.08536 106.91408 13630 ft 291 kts 127°
2026-04-30 03:47 52.06798 106.94586 13404 ft 289 kts 132°
2026-04-30 03:47 52.05398 106.96921 13235 ft 288 kts 133°
2026-04-30 03:47 52.04013 106.99264 13063 ft 287 kts 131°
2026-04-30 03:47 52.02896 107.01903 12814 ft 285 kts 116°
2026-04-30 03:48 52.02092 107.04814 12620 ft 281 kts 109°
2026-04-30 03:48 52.01422 107.07768 12379 ft 278 kts 106°
2026-04-30 03:48 52.00805 107.10709 12121 ft 275 kts 105°
2026-04-30 03:48 52.00207 107.13648 11854 ft 274 kts 105°
2026-04-30 03:49 51.99619 107.16578 11585 ft 272 kts 105°
2026-04-30 03:49 51.99038 107.19493 11315 ft 271 kts 105°
2026-04-30 03:49 51.98454 107.22393 11046 ft 270 kts 105°
2026-04-30 03:49 51.97864 107.25265 10779 ft 269 kts 106°
2026-04-30 03:50 51.97271 107.28135 10512 ft 268 kts 106°
2026-04-30 03:50 51.96682 107.30994 10247 ft 267 kts 106°
2026-04-30 03:50 51.96097 107.33846 9984 ft 266 kts 106°
2026-04-30 03:50 51.95517 107.36669 9726 ft 265 kts 107°
2026-04-30 03:51 51.94932 107.39493 9467 ft 264 kts 107°
2026-04-30 03:51 51.94351 107.42302 9210 ft 263 kts 108°
2026-04-30 03:51 51.93761 107.45102 8933 ft 263 kts 105°
2026-04-30 03:51 51.93172 107.47891 8665 ft 263 kts 105°
2026-04-30 03:52 51.92575 107.50686 8400 ft 263 kts 106°
2026-04-30 03:52 51.91979 107.53475 8140 ft 262 kts 106°
2026-04-30 03:52 51.91389 107.56253 7883 ft 262 kts 106°
2026-04-30 03:52 51.90801 107.59033 7629 ft 261 kts 106°
2026-04-30 03:53 51.90217 107.61798 7378 ft 260 kts 106°
2026-04-30 03:53 51.89619 107.64570 7127 ft 260 kts 107°
2026-04-30 03:53 51.89022 107.67319 6879 ft 259 kts 107°
2026-04-30 03:53 51.88428 107.70057 6635 ft 258 kts 107°
2026-04-30 03:54 51.87837 107.72794 6394 ft 257 kts 107°
2026-04-30 03:54 51.87251 107.75503 6189 ft 254 kts 108°
2026-04-30 03:54 51.86623 107.78142 6070 ft 248 kts 110°
2026-04-30 03:54 51.86032 107.80697 5993 ft 240 kts 107°
2026-04-30 03:55 51.85612 107.83260 5892 ft 232 kts 98°
2026-04-30 03:55 51.85429 107.85799 5808 ft 224 kts 91°
2026-04-30 03:55 51.85313 107.88268 5752 ft 218 kts 91°
2026-04-30 03:55 51.85227 107.90708 5713 ft 215 kts 89°
2026-04-30 03:56 51.85190 107.93080 5771 ft 206 kts 87°
2026-04-30 03:56 51.85118 107.95362 5777 ft 205 kts 90°
2026-04-30 03:56 51.85016 107.97680 5778 ft 207 kts 90°
2026-04-30 03:56 51.84915 107.99954 5739 ft 202 kts 91°
2026-04-30 03:57 51.84804 108.02209 5717 ft 200 kts 91°
2026-04-30 03:57 51.84681 108.04453 5744 ft 201 kts 91°
2026-04-30 03:57 51.84557 108.06694 5754 ft 202 kts 91°
2026-04-30 03:57 51.84420 108.08943 5755 ft 200 kts 92°
2026-04-30 03:58 51.84265 108.11164 5724 ft 198 kts 92°
2026-04-30 03:58 51.84202 108.13349 5726 ft 191 kts 82°
2026-04-30 03:58 51.84540 108.15362 5754 ft 184 kts 62°
2026-04-30 03:58 51.85241 108.17017 5864 ft 175 kts 41°
2026-04-30 03:59 51.86194 108.18187 5920 ft 169 kts 23°
2026-04-30 03:59 51.87289 108.18775 5953 ft 165 kts
2026-04-30 03:59 51.88411 108.18696 5942 ft 158 kts 345°
2026-04-30 03:59 51.89394 108.17970 5843 ft 156 kts 326°
2026-04-30 04:00 51.90153 108.16743 5773 ft 155 kts 308°
2026-04-30 04:00 51.90572 108.15145 5680 ft 159 kts 286°
2026-04-30 04:00 51.90510 108.13317 5628 ft 166 kts 264°
2026-04-30 04:00 51.90171 108.11516 5594 ft 169 kts 258°
2026-04-30 04:01 51.89856 108.09680 5579 ft 169 kts 261°
2026-04-30 04:01 51.89612 108.07848 5545 ft 160 kts 264°
2026-04-30 04:01 51.89409 108.06154 5487 ft 148 kts 265°
2026-04-30 04:01 51.89210 108.04597 5461 ft 131 kts 264°
2026-04-30 04:02 51.88994 108.03234 5338 ft 126 kts 263°
2026-04-30 04:02 51.88800 108.01845 5181 ft 127 kts 264°
2026-04-30 04:02 51.88635 108.00453 5021 ft 126 kts 266°
2026-04-30 04:02 51.88473 107.99044 4834 ft 129 kts 266°
2026-04-30 04:03 51.88273 107.97589 4639 ft 133 kts 264°
2026-04-30 04:03 51.88060 107.96128 4446 ft 135 kts 264°
2026-04-30 04:03 51.87879 107.94638 4233 ft 135 kts 264°
2026-04-30 04:03 51.87698 107.93135 3982 ft 137 kts 263°
2026-04-30 04:04 51.87495 107.91629 3767 ft 136 kts 261°
2026-04-30 04:04 51.87296 107.90160 3542 ft 133 kts 261°
2026-04-30 04:04 51.87116 107.88813 3329 ft 132 kts 261°
2026-04-30 04:04 51.87110 107.88774 3325 ft 132 kts 261°
2026-04-30 04:05 51.86917 107.87389 3128 ft 130 kts 260°
2026-04-30 04:05 51.86722 107.85968 2939 ft 122 kts 260°
2026-04-30 04:05 51.86546 107.84640 2756 ft 120 kts 261°
2026-04-30 04:05 51.86378 107.83304 2666 ft 121 kts 260°
2026-04-30 04:06 51.86189 107.81972 2546 ft 124 kts 259°
2026-04-30 04:06 51.85994 107.80604 2336 ft 125 kts 259°
2026-04-30 04:06 51.85861 107.79604 2231 ft 124 kts 259°
2026-04-30 04:06 51.85767 107.78875 2167 ft 124 kts 259°
2026-04-30 04:07 51.85571 107.77534 1984 ft 121 kts 258°
2026-04-30 04:07 51.85382 107.76238 1814 ft 119 kts 258°
2026-04-30 04:07 51.85211 107.74989 1718 ft 100 kts 259°
2026-04-30 04:08 51.85022 107.73588 1717 ft 36 kts 258°
2026-04-30 04:08 51.85000 107.73418 1717 ft 27 kts 258°
2026-04-30 04:09 51.84991 107.73355 1717 ft 27 kts 257°